Location: Newark
(38.1089°N, 103.8675°W)
Time: 21:14:42
(UTC+00:00)

ISS - Visible Passes

Search period start: 09 December 2019 00:00
Search period end: 19 December 2019 00:00
Orbit: 411 x 421 km, 51.6° (Epoch: 10 December)

Date Brightness Start Highest point End Pass type
(mag) Time Alt. Az. Time Alt. Az. Time Alt. Az.
09 Dec -3.8 01:12:38 10° NW 01:15:49 63° NNE 01:15:49 63° NNE visible
10 Dec -3.1 00:24:18 10° NW 00:27:28 37° NNE 00:30:15 12° E visible
10 Dec -1.1 02:01:24 10° W 02:03:14 20° WSW 02:03:14 20° WSW visible
11 Dec -2.4 01:12:31 10° WNW 01:15:42 39° SW 01:18:06 15° SSE visible
12 Dec -3.6 00:23:55 10° NW 00:27:16 76° SW 00:30:37 10° SE visible
13 Dec -0.5 01:13:30 10° W 01:15:09 13° SW 01:16:48 10° SSW visible
14 Dec -1.0 00:24:05 10° WNW 00:26:49 23° SW 00:29:32 10° S visible
